Miami, FL

12:43 PM EDT on October 17, 2019 (GMT -0400)
Miami International

Weather History for KMIA - September, 2019

Change the Weather History Date:

Tuesday, September 17, 2019

  Actual Average Record
Temperature  
Mean Temperature 87 °F 83 °F  
Max Temperature 93 °F 89 °F 95 °F (1989)
Min Temperature 80 °F 77 °F 68 °F (1910)
Degree Days  
Heating Degree Days 0 0  
Month to date heating degree days 0 0  
Since 1 July heating degree days 0 0  
Cooling Degree Days 22 18  
Month to date cooling degree days 369 308  
Year to date cooling degree days 3847 3383  
Growing Degree Days 36 (Base 50)    
Moisture  
Dew Point 71 °F    
Average Humidity 63    
Maximum Humidity 85    
Minimum Humidity 41    
Precipitation  
Precipitation 0.00 in 0.35 in 7.07 in (1928)
Month to date precipitation 2.39 5.53  
Year to date precipitation 54.31 45.93  
Snow  
Snow 0.00 in - - ()
Month to date snowfall 0.0  
Since 1 July snowfall 0.0  
Since 1 September snowfall 0.0  
Snow Depth 0.00 in    
Sea Level Pressure  
Sea Level Pressure 29.92 in    
Wind  
Wind Speed 6 mph (NNW)    
Max Wind Speed 14 mph    
Max Gust Speed 20 mph    
Visibility 10 miles    
Events Thunderstorm    
T = Trace of Precipitation, MM = Missing Value Source: NWS Daily Summary

Daily Weather History Graph

Daily Weather History Graph

Search for Another Location

Airport or City:

Astronomy

Sep. 17, 2019 Rise Set
Actual Time 7:07 AM EDT 7:23 PM EDT
Civil Twilight 6:44 AM EDT 7:46 PM EDT
Nautical Twilight 6:17 AM EDT 8:13 PM EDT
Astronomical Twilight 5:50 AM EDT 8:40 PM EDT
Moon 9:43 PM EDT 9:55 AM EDT
Length of Visible Light 13h 01m
Length of Day
12h 15m
Waning Gibbous, 89% of the Moon is Illuminated
Sep 17
Waning Gibbous
Sep 21
Last Quarter
Sep 28
New
Oct 5
First Quarter
Oct 13
Full

Hourly Weather History & Observations

Time (EDT) Temp. Heat Index Dew Point Humidity Pressure Visibility Wind Dir Wind Speed Gust Speed Precip Events Conditions
12:53 AM 82.9 °F 90.2 °F 75.0 °F 77% 29.92 in 10.0 mi Calm Calm - N/A   Mostly Cloudy
1:15 AM 82.0 °F 89.4 °F 75.9 °F 82% 29.92 in 10.0 mi WNW 3.5 mph - N/A Thunderstorm Mostly Cloudy
1:30 AM 82.0 °F 89.4 °F 75.9 °F 82% 29.91 in 10.0 mi WNW 3.5 mph - N/A   Scattered Clouds
1:53 AM 82.0 °F 89.4 °F 75.9 °F 82% 29.91 in 10.0 mi Calm Calm - N/A   Scattered Clouds
2:53 AM 82.0 °F 89.4 °F 75.9 °F 82% 29.90 in 10.0 mi WNW 3.5 mph - N/A   Scattered Clouds
3:53 AM 82.0 °F 88.6 °F 75.0 °F 79% 29.89 in 10.0 mi NNW 4.6 mph - N/A   Scattered Clouds
4:53 AM 81.0 °F 86.7 °F 75.0 °F 82% 29.90 in 10.0 mi NNW 3.5 mph - N/A   Scattered Clouds
5:53 AM 81.0 °F 86.2 °F 73.9 °F 79% 29.92 in 10.0 mi NNW 5.8 mph - N/A   Scattered Clouds
6:53 AM 80.1 °F 84.5 °F 73.9 °F 81% 29.93 in 10.0 mi North 3.5 mph - N/A   Scattered Clouds
7:53 AM 81.0 °F 85.8 °F 73.0 °F 77% 29.95 in 10.0 mi NW 4.6 mph - N/A   Partly Cloudy
8:53 AM 82.9 °F 88.8 °F 73.0 °F 72% 29.96 in 10.0 mi NW 6.9 mph - N/A   Partly Cloudy
9:53 AM 84.9 °F 91.4 °F 73.0 °F 67% 29.97 in 10.0 mi NW 4.6 mph - N/A   Partly Cloudy
10:53 AM 88.0 °F 95.6 °F 73.0 °F 61% 29.97 in 10.0 mi NW 9.2 mph - N/A   Partly Cloudy
11:53 AM 91.0 °F 93.8 °F 66.0 °F 44% 29.96 in 10.0 mi North 8.1 mph 18.4 mph N/A   Partly Cloudy
12:53 PM 91.9 °F 95.4 °F 66.9 °F 44% 29.94 in 10.0 mi NW 9.2 mph - N/A   Partly Cloudy
1:53 PM 91.9 °F 94.5 °F 66.0 °F 42% 29.93 in 10.0 mi West 8.1 mph - N/A   Scattered Clouds
2:53 PM 93.0 °F 96.4 °F 66.9 °F 42% 29.91 in 10.0 mi North 8.1 mph 16.1 mph N/A   Scattered Clouds
3:53 PM 91.9 °F 94.5 °F 66.0 °F 42% 29.89 in 10.0 mi WNW 9.2 mph - N/A   Scattered Clouds
4:53 PM 91.9 °F 94.1 °F 64.9 °F 41% 29.88 in 10.0 mi WNW 10.4 mph - N/A   Partly Cloudy
5:53 PM 91.9 °F 94.1 °F 64.9 °F 41% 29.88 in 10.0 mi Variable 4.6 mph - N/A   Partly Cloudy
6:53 PM 91.0 °F 92.6 °F 64.0 °F 41% 29.88 in 10.0 mi Variable 6.9 mph 16.1 mph N/A   Partly Cloudy
7:53 PM 86.0 °F 90.1 °F 69.1 °F 57% 29.90 in 10.0 mi ENE 8.1 mph - N/A   Partly Cloudy
8:53 PM 84.9 °F 90.7 °F 72.0 °F 65% 29.91 in 10.0 mi NE 8.1 mph - N/A   Partly Cloudy
9:53 PM 84.9 °F 90.7 °F 72.0 °F 65% 29.93 in 10.0 mi NE 5.8 mph - N/A   Partly Cloudy
10:53 PM 84.0 °F 89.0 °F 71.1 °F 65% 29.94 in 10.0 mi NNE 4.6 mph - N/A   Clear
11:53 PM 82.9 °F 87.5 °F 71.1 °F 67% 29.94 in 10.0 mi Calm Calm - N/A   Clear